Regional Weather Roundup
Issued by NWS

Home | Current Version | Previous Version | Text Only | Print | Product List | Glossary Off
Versions: 1 2 3 4 5 6 7 8 9 10 11 12 13 14 15 16 17 18 19 20 21 22 23 24 25 26 27 28 29 30 31 32 33 34 35 36 37 38 39 40 41 42 43 44 45 46 47 48 49 50

000
ASUS43 KLMK 191002
RWRKY
KENTUCKY REGIONAL WEATHER ROUNDUP
NATIONAL WEATHER SERVICE LOUISVILLE KY
500 AM EST FRI JAN 19 2018

NOTE "FAIR" INDICATES FEW OR NO CLOUDS BELOW 12,000 FEET
WITH NO SIGNIFICANT WEATHER AND/OR OBSTRUCTIONS TO VISIBILITY.

KYZ001>023-026-027-061>063-070>075-191100-
WESTERN AND SOUTH CENTRAL KENTUCKY

CITY           SKY/WX    TMP DP  RH WIND       PRES   REMARKS
PADUCAH        FAIR      20  10  65 S5        30.24F WCI  13
HENDERSON      FAIR      23  14  68 SW12      30.23F WCI  12
OWENSBORO      FAIR      19  12  74 S8        30.24F WCI   9
HOPKINSVILLE   FAIR      17  10  73 S3        30.27S
BOWLING GREEN  FAIR      10   8  92 CALM      30.29S
GLASGOW        NOT AVBL
$$

KYZ024-025-028>034-038-045-046-053-191100-
NORTH CENTRAL KENTUCKY

CITY           SKY/WX    TMP DP  RH WIND       PRES   REMARKS
LOUISVILLE/SDF FAIR      25  13  60 S9        30.23S WCI  15
LOUISVILLE/LOU FAIR      23  13  65 S8        30.24S WCI  14
FORT KNOX      FAIR      19  10  67 S6        30.21F WCI  11
$$

KYZ035>037-039>044-047>052-055>060-089>105-191100-
NORTHEAST KENTUCKY

CITY           SKY/WX    TMP DP  RH WIND       PRES   REMARKS
LEXINGTON      FAIR      21  11  65 S10       30.23S WCI  10
COVINGTON      FAIR      21  12  68 S9        30.17F WCI  11
FRANKFORT      FAIR      22  10  60 SW8       30.22R WCI  12
$$

KYZ054-064>069-076>088-106>120-191100-
SOUTHEAST KENTUCKY

CITY           SKY/WX    TMP DP  RH WIND       PRES   REMARKS
JACKSON        FAIR      23   9  55 SW7       30.23R WCI  15
LONDON         FAIR      12   7  80 CALM      30.25S
SOMERSET       NOT AVBL
MIDDLESBORO    FAIR      12  10  92 CALM      30.30S
MONTICELLO     FAIR       9   6  88 CALM      30.28F
$$




USA.gov is the U.S. government's official web portal to all federal, state and local government web resources and services.